Weather in Barmino

Russia / Nizhny Novgorod Oblast'     56°06′42″N   45°30′26″E
temp.,
°C
wind,
m/s
gust,
m/s
humid.,
%
clouds,
%
prec.,
mm/h
press.,
hPa
HPBL,
m
2 july, sat
sat200:00+10n412945 0.0 1018253
03:00+9n399299 0.0 1018156
06:00+12nne49775 0.0 1018259
09:00+18nne56550 0.0 1018832
12:00+21nne45401 0.0 10172010
15:00+23n364119 0.0 10152335
18:00+22nne3560100 0.0 1014202
21:00+16ne227178 0.0 101511
3 july, sun
sun300:00+15nw117795 0.2 101411
03:00+14nnw118978 0.8 101312
06:00+15n238788 0.1 1013161
09:00+17ne3482100 0.1 1013508
12:00+20nne557454 0.6 1014917
15:00+21nne566146 1.2 10131489
18:00+19ne477291 0.1 1014509
21:00+14nne3388100 0.1 101432
4 july, mon
mon400:00+12nne119014 0.0 101510
03:00+11nnw22903 0.0 101518
06:00+14nw3785100 0.0 1015187
09:00+20n5761100 0.0 1015873
12:00+23nne57445 0.0 10142240
15:00+24nne464094 0.0 10142349
18:00+22ne3560100 0.0 1014192
21:00+16ese226833 0.0 101512
5 july, tue
tue500:00+13sw11789 0.0 101610
03:00+12w1181100 0.0 101710
06:00+16nnw11705 0.0 101771
09:00+21nne11563 0.0 1017506
12:00+24wsw12435 0.0 10171790
15:00+25sw32448 0.0 10161405
18:00+23sw24611 0.0 1016195
21:00+18ssw33725 0.0 101620
6 july, wed
wed600:00+15ssw33712 0.0 101722
03:00+14s33750 0.0 101724
06:00+17s387624 0.0 1017205
09:00+22ssw57637 0.0 1016521
12:00+25ssw55605 0.0 10161055
15:00+25sw5671100 2.3 10151171
18:00+23s488495 1.6 1014289
21:00+19sw339242 3.3 101544